Find OneWeb SL0133

NORAD ID: 47263 Int'l Des: 2020-100 Owner: ONEWEB Country: UK Constellation: oneweb operational
LEOCIRCULARPOLARONEWEB_TYPE

現在のビュー

3D地球を読み込み中...

About OneWeb SL0133

OneWeb SL0133 (NORAD 47263) is a oneweb constellation satellite launched Dec 18, 2020 by ONEWEB of UK. It operates in LEO, CIRCULAR, POLAR, ONEWEB_TYPE orbit with a mass of 148.00 kg.

OneWeb SL0133について

説明を読み込み中...

次回通過

Passes for default location (London). Set your location on the main map for personalized predictions.

高度履歴

Loading altitude history...

軌道要素

1 47263U 20100F 26170.96659521 .00000068 00000-0 15466-3 0 9993
2 47263 87.8947 350.0971 0001771 92.1126 268.0205 13.12442570264890
Epoch: Jun 19, 2026 • Age: 21 hours

現在のステータス

高度 1226.5 km
速度 7.24 km/s
衛星直下点 -32.14°S, 43.84°W
打ち上げ日 Dec 18, 2020
運用期間 5.5 years
タイプ internet

技術仕様

分類 Payload
質量 148.00 kg
乾燥質量 140.00 kg
総質量 148.00 kg
長さ 1.30 m
直径 1.00 m
スパン 5.00 m
形状 Trapezoid+2 pan
製造者 ONEWUS
バスタイプ ARROW
フェーズステータス In Orbit
所有者/国 ONEWEB/UK

Most Searched